Clear, few cirrus
Clear with few low clouds and cirrus
Clear with few low clouds and cirrus
Partly cloudy and cirrus
Clear with few low clouds and cirrus
Partly cloudy and cirrus
Partly cloudy and cirrus
(°C)
18°
18°
21°
21°
24°
24°
26°
26°
28°
28°
29°
29°
30°
30°
(°C)
14°
17°
20°
22°
23°
25°
25°
ENE
SSE
SSW
SSW
SSW
SSW
SSW
(km/h)
10-18
8-19
9-18
12-22
16-29
20-35
23-39
(mm)
0
0
0
0
0
0
0
(%)
0
0
0
0
0
0
0

Sun elevation

/
sun-icon
UV 9
05:19
19:27
Waxing gibbous moon (123°)
15:06
02:45

METAR for Sedona (KSEZ)

Time Conditions Temperature/
Dewpoint
Wind Visibility Weather Clouds Pressure Change Raw
VFR 16°C / 0°C 30º 12kt >10km - Clear - KSEZ 181235Z AUTO 03012KT 10SM CLR 16/M00 A3005 RMK AO2
VFR 16°C / -1°C 30º 11kt >10km - Clear - KSEZ 181215Z AUTO 03011KT 10SM CLR 16/M01 A3005 RMK AO2
VFR 17°C / -1°C 30º 11kt >10km - Clear - KSEZ 181155Z AUTO 03011KT 10SM CLR 17/M01 A3004 RMK AO2
VFR 17°C / -1°C 30º 9kt >10km - Clear - KSEZ 181135Z AUTO 03009KT 10SM CLR 17/M01 A3004 RMK AO2
VFR 17°C / -1°C 30º 7kt >10km - Clear - KSEZ 181115Z AUTO 03007KT 10SM CLR 17/M01 A3004 RMK AO2
VFR 17°C / -1°C 30º 6kt >10km - Clear - KSEZ 181055Z AUTO 03006KT 10SM CLR 17/M01 A3004 RMK AO2
VFR 18°C / -1°C 40º 6kt >10km - Clear - KSEZ 181035Z AUTO 04006KT 10SM CLR 18/M01 A3004 RMK AO2
VFR 17°C / -1°C 20º 9kt >10km - Clear - KSEZ 181015Z AUTO 02009KT 10SM CLR 17/M01 A3004 RMK AO2
VFR 17°C / -1°C 30º 7kt >10km - Clear - KSEZ 180955Z AUTO 03007KT 10SM CLR 17/M01 A3003 RMK AO2
VFR 18°C / -1°C 30º 6kt >10km - Clear - KSEZ 180935Z AUTO 03006KT 10SM CLR 18/M01 A3003 RMK AO2
VFR 19°C / -1°C 20º 5kt >10km - Clear - KSEZ 180915Z AUTO 02005KT 10SM CLR 19/M01 A3003 RMK AO2
VFR 19°C / -1°C 20º 7kt >10km - Clear - KSEZ 180855Z AUTO 02007KT 10SM CLR 19/M01 A3003 RMK AO2
VFR 20°C / -1°C 20º 4kt >10km - Clear - KSEZ 180815Z AUTO 02004KT 10SM CLR 20/M01 A3003 RMK AO2
VFR 20°C / -1°C 5kt >10km - Clear - KSEZ 180755Z AUTO VRB05KT 9SM CLR 20/M01 A3003 RMK AO2
VFR 20°C / -1°C variable 0kt >10km - Clear - KSEZ 180735Z AUTO 00000KT 10SM CLR 20/M01 A3003 RMK AO2
VFR 21°C / -1°C variable 0kt >10km - Clear - KSEZ 180715Z AUTO 00000KT 10SM CLR 21/M01 A3003 RMK AO2
VFR 21°C / -1°C 160º 3kt >10km - Clear - KSEZ 180655Z AUTO 16003KT 10SM CLR 21/M01 A3003 RMK AO2
VFR 21°C / -2°C 150º 5kt >10km - Clear - KSEZ 180635Z AUTO 15005KT 10SM CLR 21/M02 A3003 RMK AO2
VFR 21°C / -1°C 130º 4kt >10km - Clear - KSEZ 180615Z AUTO 13004KT 10SM CLR 21/M01 A3002 RMK AO2
VFR 21°C / -2°C 130º 4kt >10km - Clear - KSEZ 180555Z AUTO 13004KT 10SM CLR 21/M02 A3002 RMK AO2
VFR 22°C / -2°C 140º 4kt >10km - Clear - KSEZ 180535Z AUTO 14004KT 9SM CLR 22/M02 A3002 RMK AO2
VFR 22°C / -2°C 160º 5kt >10km - Clear - KSEZ 180515Z AUTO 16005KT 10SM CLR 22/M02 A3002 RMK AO2
VFR 22°C / -2°C 160º 5kt >10km - Clear - KSEZ 180455Z AUTO 16005KT 10SM CLR 22/M02 A3002 RMK AO2
VFR 22°C / -2°C 170º 5kt >10km - Clear - KSEZ 180435Z AUTO 17005KT 10SM CLR 22/M02 A3001 RMK AO2

VFR

16°C / 0°C

[More]
Wind 30º 12kt
Visibility >10km
Weather -
Clouds Clear
Pressure
Change -
Raw KSEZ 181235Z AUTO 03012KT 10SM CLR 16/M00 A3005 RMK AO2

VFR

16°C / -1°C

[More]
Wind 30º 11kt
Visibility >10km
Weather -
Clouds Clear
Pressure
Change -
Raw KSEZ 181215Z AUTO 03011KT 10SM CLR 16/M01 A3005 RMK AO2

VFR

17°C / -1°C

[More]
Wind 30º 11kt
Visibility >10km
Weather -
Clouds Clear
Pressure
Change -
Raw KSEZ 181155Z AUTO 03011KT 10SM CLR 17/M01 A3004 RMK AO2

VFR

17°C / -1°C

[More]
Wind 30º 9kt
Visibility >10km
Weather -
Clouds Clear
Pressure
Change -
Raw KSEZ 181135Z AUTO 03009KT 10SM CLR 17/M01 A3004 RMK AO2

VFR

17°C / -1°C

[More]
Wind 30º 7kt
Visibility >10km
Weather -
Clouds Clear
Pressure
Change -
Raw KSEZ 181115Z AUTO 03007KT 10SM CLR 17/M01 A3004 RMK AO2

VFR

17°C / -1°C

[More]
Wind 30º 6kt
Visibility >10km
Weather -
Clouds Clear
Pressure
Change -
Raw KSEZ 181055Z AUTO 03006KT 10SM CLR 17/M01 A3004 RMK AO2

VFR

18°C / -1°C

[More]
Wind 40º 6kt
Visibility >10km
Weather -
Clouds Clear
Pressure
Change -
Raw KSEZ 181035Z AUTO 04006KT 10SM CLR 18/M01 A3004 RMK AO2

VFR

17°C / -1°C

[More]
Wind 20º 9kt
Visibility >10km
Weather -
Clouds Clear
Pressure
Change -
Raw KSEZ 181015Z AUTO 02009KT 10SM CLR 17/M01 A3004 RMK AO2

VFR

17°C / -1°C

[More]
Wind 30º 7kt
Visibility >10km
Weather -
Clouds Clear
Pressure
Change -
Raw KSEZ 180955Z AUTO 03007KT 10SM CLR 17/M01 A3003 RMK AO2

VFR

18°C / -1°C

[More]
Wind 30º 6kt
Visibility >10km
Weather -
Clouds Clear
Pressure
Change -
Raw KSEZ 180935Z AUTO 03006KT 10SM CLR 18/M01 A3003 RMK AO2

VFR

19°C / -1°C

[More]
Wind 20º 5kt
Visibility >10km
Weather -
Clouds Clear
Pressure
Change -
Raw KSEZ 180915Z AUTO 02005KT 10SM CLR 19/M01 A3003 RMK AO2

VFR

19°C / -1°C

[More]
Wind 20º 7kt
Visibility >10km
Weather -
Clouds Clear
Pressure
Change -
Raw KSEZ 180855Z AUTO 02007KT 10SM CLR 19/M01 A3003 RMK AO2

VFR

20°C / -1°C

[More]
Wind 20º 4kt
Visibility >10km
Weather -
Clouds Clear
Pressure
Change -
Raw KSEZ 180815Z AUTO 02004KT 10SM CLR 20/M01 A3003 RMK AO2

VFR

20°C / -1°C

[More]
Wind 5kt
Visibility >10km
Weather -
Clouds Clear
Pressure
Change -
Raw KSEZ 180755Z AUTO VRB05KT 9SM CLR 20/M01 A3003 RMK AO2

VFR

20°C / -1°C

[More]
Wind variable 0kt
Visibility >10km
Weather -
Clouds Clear
Pressure
Change -
Raw KSEZ 180735Z AUTO 00000KT 10SM CLR 20/M01 A3003 RMK AO2

VFR

21°C / -1°C

[More]
Wind variable 0kt
Visibility >10km
Weather -
Clouds Clear
Pressure
Change -
Raw KSEZ 180715Z AUTO 00000KT 10SM CLR 21/M01 A3003 RMK AO2

VFR

21°C / -1°C

[More]
Wind 160º 3kt
Visibility >10km
Weather -
Clouds Clear
Pressure
Change -
Raw KSEZ 180655Z AUTO 16003KT 10SM CLR 21/M01 A3003 RMK AO2

VFR

21°C / -2°C

[More]
Wind 150º 5kt
Visibility >10km
Weather -
Clouds Clear
Pressure
Change -
Raw KSEZ 180635Z AUTO 15005KT 10SM CLR 21/M02 A3003 RMK AO2

VFR

21°C / -1°C

[More]
Wind 130º 4kt
Visibility >10km
Weather -
Clouds Clear
Pressure
Change -
Raw KSEZ 180615Z AUTO 13004KT 10SM CLR 21/M01 A3002 RMK AO2

VFR

21°C / -2°C

[More]
Wind 130º 4kt
Visibility >10km
Weather -
Clouds Clear
Pressure
Change -
Raw KSEZ 180555Z AUTO 13004KT 10SM CLR 21/M02 A3002 RMK AO2

VFR

22°C / -2°C

[More]
Wind 140º 4kt
Visibility >10km
Weather -
Clouds Clear
Pressure
Change -
Raw KSEZ 180535Z AUTO 14004KT 9SM CLR 22/M02 A3002 RMK AO2

VFR

22°C / -2°C

[More]
Wind 160º 5kt
Visibility >10km
Weather -
Clouds Clear
Pressure
Change -
Raw KSEZ 180515Z AUTO 16005KT 10SM CLR 22/M02 A3002 RMK AO2

VFR

22°C / -2°C

[More]
Wind 160º 5kt
Visibility >10km
Weather -
Clouds Clear
Pressure
Change -
Raw KSEZ 180455Z AUTO 16005KT 10SM CLR 22/M02 A3002 RMK AO2

VFR

22°C / -2°C

[More]
Wind 170º 5kt
Visibility >10km
Weather -
Clouds Clear
Pressure
Change -
Raw KSEZ 180435Z AUTO 17005KT 10SM CLR 22/M02 A3001 RMK AO2

TAF for Sedona (KSEZ)

From till


From till Wind 30º 6kt. Visibility 9700m. Scattered Clouds 25000ft.
From till Wind 180º 12kt. Gust 22kt. Visibility 9700m. Scattered Clouds 25000ft.
From till Wind 190º 10kt. Visibility 9700m. Sky Clear.
From till Wind 30º 5kt. Visibility 9700m. Sky Clear.

Raw: KSEZ 181120Z 1812/1912 03006KT P6SM SCT250 FM181800 18012G22KT P6SM SCT250 FM190300 19010KT P6SM SKC FM190600 03005KT P6SM SKC

rainNOW: Rain nowcast for Sedona and surroundings (25km radius)

0.0 mm
0.0 mm
0.0 mm
0.0 mm
0.0 mm
0.0 mm
0.0 mm
0.0 mm
0.0 mm
0.0 mm
0.0 mm
0.0 mm

Radar and precipitation nowcast for Sedona

Drizzle
Light
Moderate
Heavy
Very Heavy
Hail

The location marker is placed on Sedona. This animation shows the precipitation radar for the selected time range, as well as a 1h forecast. Orange crosses indicate lightning. Data provided by nowcast.de (available in USA, Europe, Australia). Drizzle or light snow fall might be invisible for the radar. Precipitation intensity is colour coded, ranging from turquoise to red.

Current satellite images for Sedona, United States

The location marker is placed on Sedona. [More]

The real-time satellite image combines visible light during daytime with infrared radiation during nighttime. At night, the image is not dark as infrared radiation can detect temperature differences. Unfortunately, low clouds and fog are difficult to distinguish from ground temperatures and thus can be almost invisible during the night. Meteosat satellite images for Europe are updated in real-time every 5 minutes. GOES-16/GOES-17 (North & South America) and Himawari (Asia) images update every 10 minutes.

Precipitation is estimated from radar and satellites. Precipitation estimates from satellites are less accurate at night than during daytime.

© 2024 meteoblue, NOAA Satellites GOES-16 and EUMETSAT. Lightning data provided by nowcast.

Back to top
×
Hey there,
seems like you are using an ad blocker.

Advertising is essential to maintain our free website with unique detail and accuracy.

Please whitelist www.meteoblue.com on your ad blocker or consider buying one of our products:

Already have a subscription?
Then please login.